Flag for United Kingdom Weather past 2 weeks in Salisbury, England, United Kingdom

Now
50 °F

Partly sunny.


Feels Like: 45 °F
Forecast: 37 / 65 °F
Wind: 15 mph from Northeast

Location: Boscombe Down

Current Time: Apr 19, 2015 at 5:24:13 PM

Latest Report: Apr 19, 2015 at 4:50 PM


Visibility: N/A

Pressure: 30.18 "Hg

Humidity: 54%

Dew point: 34 °F

Location of SalisburyLocation

Historic Weather in Salisbury — Graph

°F

Salisbury temperature yesterday

Maximum temperature yesterday: 59 °F (at 2:50 PM)
Minimum temperature yesterday: 39 °F (at 4:50 AM)
Average temperature yesterday: 49 °F

Past Weeks' High & Low Weather Summary

 TemperatureHumidityPressure
High72 °F (Apr 15, 1:50 PM)100% (Apr 5, 10:50 PM)30.63 "Hg (Apr 5, 10:50 PM)
Low32 °F (Apr 6, 4:50 AM)31% (Apr 17, 4:50 PM)29.89 "Hg (Apr 11, 2:50 AM)
Average50 °F73%30.25 "Hg
* Reported Apr 4 3:50 PM — Apr 19 3:50 PM, Salisbury, Weather by CustomWeather, © 2015

Note: Actual official high and low records may vary slightly from our data, if they occured in-between our weather recording intervals... More about our weather records

Advertising

Salisbury weather history for previous 24 hours

 ConditionsComfort  
Time TempWeatherWind HumidityBarometerVisibility
3:50 PM
Sun, Apr 19
52 °FPartly sunny.12 mph47%30.18 "HgN/A
2:50 PM50 °FPartly sunny.13 mph54%30.21 "HgN/A
1:50 PM50 °FPartly sunny.15 mph50%30.21 "HgN/A
12:50 PM48 °FPartly sunny.14 mph58%30.24 "HgN/A
11:50 AM50 °FPartly sunny.15 mph50%30.24 "HgN/A
10:50 AM46 °FPartly sunny.12 mph57%30.24 "HgN/A
9:50 AM45 °FScattered clouds.12 mph66%30.24 "HgN/A
8:50 AM43 °FScattered clouds.16 mph66%30.27 "HgN/A
7:50 AM39 °FScattered clouds.15 mph75%30.27 "HgN/A
6:50 AM37 °FPassing clouds.12 mph87%30.27 "HgN/A
5:50 AM37 °FPassing clouds.12 mph87%30.27 "HgN/A
4:50 AM37 °FChilly.12 mph87%30.27 "HgN/A
3:50 AM39 °FChilly.10 mph87%30.27 "HgN/A
2:50 AM39 °FChilly.9 mph87%30.27 "HgN/A
1:50 AM41 °FQuite cool.12 mph81%30.30 "HgN/A
12:50 AM45 °FQuite cool.12 mph61%30.30 "HgN/A
11:50 PM
Sat, Apr 18
45 °FQuite cool.7 mph53%30.30 "HgN/A
10:50 PM45 °FQuite cool.6 mph57%30.30 "HgN/A
9:50 PM45 °FQuite cool.7 mph57%30.30 "HgN/A
8:50 PM48 °FCool.10 mph50%30.27 "HgN/A
7:50 PM52 °FCool.14 mph41%30.27 "HgN/A
6:50 PM55 °FRefreshingly cool.18 mph41%30.27 "HgN/A
5:50 PM57 °FRefreshingly cool.17 mph39%30.24 "HgN/A
Weather by CustomWeather, © 2015

See weather overviewHow to use our weather pages